sat.trackr.live / text

‹ back to catalog

STARLINK-36443

NORAD 67431 · 2026-005AD

PAYLOAD ACTIVE UNKNOWN

§ Identity

Operator
Country
US
Launch date
2026-01-12
Launch site
AFETR
Launch vehicle
Mass (kg)
RCS (m²)

Purposes: comms

External: N2YO · Heavens-Above · Gunter

§ Orbital elements

Epoch: 2026-05-25T02:09:10.810080Z

Period
94.27 min
Inclination
42.9985°
Eccentricity
0.0000914
Mean motion
15.27589992 rev/d
Perigee alt
482.4 km
Apogee alt
483.6 km
Semi-major
6,861.2 km
B*
3.4382e-4
RAAN
166.2709°
Arg perigee
271.7587°
Mean anomaly
88.3160°
Rev number
2,038

§ Raw data

STARLINK-364431 67431U 26005AD  26145.08970845  .00009214  00000+0  34382-3 0  99912 67431  42.9985 166.2709 0000914 271.7587  88.3160 15.27589992 20388

JSON: /api/v1/satellites/67431 · /tle

For live sub-satellite position, see the globe view (requires WebGL).

§ Visibility from observer

Set your observer location to see the next 7 days of passes ≥ 10°. The values pass through the URL so the page stays shareable.

No JS? Fill the form by hand. The geolocation button needs JavaScript.